Coleman, TX

4:54 AM CDT on August 22, 2017 (GMT -0500)
Coleman Municipal

Weather History for KCOM - May, 2013

Change the Weather History Date:

Tuesday, May 14, 2013

  Actual Average (KABI) Record (KABI)
Temperature  
Mean Temperature 72 °F -  
Max Temperature 89 °F 83 °F 105 °F (1960)
Min Temperature 56 °F 59 °F 41 °F (2014)
Cooling Degree Days 7    
Growing Degree Days 22 (Base 50)    
Moisture  
Dew Point 51 °F    
Average Humidity 49    
Maximum Humidity 86    
Minimum Humidity 28    
Precipitation  
Precipitation 0.01 in - - ()
Sea Level Pressure  
Sea Level Pressure 30.11 in    
Wind  
Wind Speed 9 mph (South)    
Max Wind Speed 20 mph    
Max Gust Speed 26 mph    
Visibility 10 miles    
Events Rain , Thunderstorm    
Averages and records for this station are not official NWS values.
T = Trace of Precipitation, MM = Missing Value Source: NWS Daily Summary

Daily Weather History Graph

Daily Weather History Graph

Search for Another Location

Airport or City:

Trip Planner

Search our weather history database for the weather conditions in past years. The results will help you decide how hot, cold, wet, or windy it might be!

Date:

Astronomy

May. 14, 2013 Rise Set
Actual Time 6:41 AM CDT 8:27 PM CDT
Civil Twilight 6:14 AM CDT 8:54 PM CDT
Nautical Twilight 5:42 AM CDT 9:26 PM CDT
Astronomical Twilight 5:08 AM CDT 10:00 PM CDT
Moon 10:21 AM CDT (5/14) No Moon Set
Length of Visible Light 14h 39m
Length of Day
13h 46m
Waxing Crescent, 19% of the Moon is Illuminated
May 14
Waxing Crescent
May 17
First Quarter
May 24
Full
May 31
Last Quarter
Jun 8
New

Hourly Weather History & Observations

Time (CDT) Temp. Dew Point Humidity Pressure Visibility Wind Dir Wind Speed Gust Speed Precip Events Conditions
12:15 AM 67.8 °F 46.4 °F 46% 30.20 in 10.0 mi South 9.2 mph - N/A   Clear
12:35 AM 66.4 °F 46.8 °F 49% 30.20 in 10.0 mi South 6.9 mph - N/A   Clear
12:55 AM 66.2 °F 47.1 °F 50% 30.20 in 10.0 mi South 6.9 mph - N/A   Clear
1:15 AM 65.5 °F 47.3 °F 52% 30.19 in 10.0 mi SSW 8.1 mph - N/A   Clear
1:35 AM 65.1 °F 47.5 °F 53% 30.18 in 10.0 mi SSW 6.9 mph - N/A   Clear
1:55 AM 64.8 °F 47.7 °F 54% 30.18 in 10.0 mi SSW 6.9 mph - N/A   Clear
2:15 AM 64.8 °F 47.8 °F 54% 30.18 in 10.0 mi South 6.9 mph - N/A   Clear
2:35 AM 64.2 °F 48.0 °F 56% 30.17 in 10.0 mi SSW 5.8 mph - N/A   Clear
2:55 AM 62.8 °F 48.2 °F 59% 30.17 in 10.0 mi SSW 4.6 mph - N/A   Clear
3:15 AM 61.9 °F 48.2 °F 61% 30.16 in 10.0 mi South 3.5 mph - N/A   Clear
3:35 AM 59.2 °F 48.7 °F 68% 30.16 in 10.0 mi Calm Calm - N/A   Clear
3:55 AM 59.7 °F 48.6 °F 67% 30.16 in 10.0 mi Calm Calm - N/A   Clear
4:15 AM 61.3 °F 48.4 °F 62% 30.15 in 10.0 mi Calm Calm - N/A   Clear
4:35 AM 61.0 °F 48.4 °F 63% 30.15 in 10.0 mi Calm Calm - N/A   Clear
4:55 AM 59.4 °F 48.6 °F 67% 30.15 in 10.0 mi Calm Calm - N/A   Clear
5:15 AM 57.0 °F 49.1 °F 75% 30.15 in 10.0 mi SW 3.5 mph - N/A   Clear
5:35 AM 57.6 °F 49.1 °F 73% 30.15 in 10.0 mi SSW 4.6 mph - N/A   Clear
5:55 AM 56.7 °F 49.1 °F 76% 30.15 in 10.0 mi SW 3.5 mph - N/A   Clear
6:15 AM 58.5 °F 49.1 °F 71% 30.16 in 10.0 mi Calm Calm - N/A   Clear
6:35 AM 57.2 °F 49.1 °F 74% 30.16 in 10.0 mi Calm Calm - N/A   Clear
6:55 AM 57.7 °F 50.0 °F 75% 30.16 in 10.0 mi SSW 4.6 mph - N/A   Clear
7:15 AM 59.9 °F 50.9 °F 72% 30.16 in 10.0 mi South 5.8 mph - N/A   Clear
7:35 AM 61.9 °F 51.3 °F 68% 30.17 in 10.0 mi SSW 6.9 mph - N/A   Clear
7:55 AM 63.3 °F 51.8 °F 66% 30.17 in 10.0 mi SSW 5.8 mph - N/A   Clear
8:15 AM 64.2 °F 52.2 °F 65% 30.18 in 10.0 mi South 8.1 mph - N/A   Clear
8:35 AM 66.0 °F 53.1 °F 63% 30.18 in 10.0 mi SSW 11.5 mph - N/A   Clear
8:55 AM 67.1 °F 53.8 °F 62% 30.18 in 10.0 mi SSW 12.7 mph 18.4 mph N/A   Clear
9:15 AM 68.9 °F 54.7 °F 60% 30.18 in 10.0 mi SSW 9.2 mph 17.3 mph N/A   Clear
9:35 AM 70.9 °F 55.4 °F 58% 30.18 in 10.0 mi SSW 10.4 mph - N/A   Clear
9:55 AM 72.1 °F 55.8 °F 56% 30.18 in 10.0 mi SSW 11.5 mph - N/A   Clear
10:15 AM 73.8 °F 55.8 °F 53% 30.18 in 10.0 mi SSW 12.7 mph 18.4 mph N/A   Clear
10:35 AM 75.7 °F 54.9 °F 48% 30.17 in 10.0 mi SSW 10.4 mph 18.4 mph N/A   Clear
10:55 AM 76.1 °F 54.1 °F 46% 30.17 in 10.0 mi South 12.7 mph 19.6 mph N/A   Clear
11:15 AM 77.0 °F 54.0 °F 45% 30.17 in 10.0 mi SSW 11.5 mph 18.4 mph N/A   Clear
11:35 AM 77.9 °F 53.8 °F 43% 30.16 in 10.0 mi South 12.7 mph 19.6 mph N/A   Clear
11:55 AM 79.2 °F 54.1 °F 42% 30.16 in 10.0 mi South 11.5 mph 18.4 mph N/A   Clear
12:15 PM 79.9 °F 52.7 °F 39% 30.15 in 10.0 mi South 15.0 mph 18.4 mph N/A   Clear
12:35 PM 81.1 °F 50.5 °F 34% 30.14 in 10.0 mi South 13.8 mph 24.2 mph N/A   Clear
12:55 PM 82.0 °F 52.0 °F 35% 30.13 in 10.0 mi SSW 16.1 mph 21.9 mph N/A   Clear
1:15 PM 81.9 °F 51.6 °F 35% 30.13 in 10.0 mi SSW 19.6 mph 24.2 mph N/A   Clear
1:35 PM 82.2 °F 52.0 °F 35% 30.11 in 10.0 mi South 17.3 mph 24.2 mph N/A   Clear
1:55 PM 82.6 °F 52.5 °F 35% 30.10 in 10.0 mi South 13.8 mph 21.9 mph N/A   Clear
2:15 PM 83.7 °F 52.5 °F 34% 30.10 in 10.0 mi South 16.1 mph 26.5 mph N/A   Clear
2:35 PM 84.6 °F 52.5 °F 33% 30.09 in 10.0 mi SSW 17.3 mph 21.9 mph N/A   Scattered Clouds
2:55 PM 85.3 °F 51.6 °F 31% 30.08 in 10.0 mi South 17.3 mph 25.3 mph N/A   Scattered Clouds
3:15 PM 86.5 °F 51.3 °F 30% 30.07 in 10.0 mi South 16.1 mph 24.2 mph N/A   Scattered Clouds
3:35 PM 86.4 °F 51.1 °F 30% 30.06 in 10.0 mi South 12.7 mph 23.0 mph N/A   Scattered Clouds
3:55 PM 87.8 °F 51.4 °F 29% 30.04 in 10.0 mi South 13.8 mph 26.5 mph N/A   Scattered Clouds
4:15 PM 86.7 °F 51.4 °F 30% 30.04 in 10.0 mi South 13.8 mph 21.9 mph N/A   Scattered Clouds
4:35 PM 88.2 °F 51.3 °F 28% 30.03 in 10.0 mi South 12.7 mph 23.0 mph N/A   Scattered Clouds
4:55 PM 88.7 °F 51.6 °F 28% 30.01 in 10.0 mi South 16.1 mph 23.0 mph N/A   Mostly Cloudy
5:15 PM 87.6 °F 51.4 °F 29% 30.00 in 10.0 mi South 18.4 mph 24.2 mph N/A   Mostly Cloudy
5:35 PM 86.4 °F 51.6 °F 30% 30.00 in 10.0 mi South 18.4 mph 25.3 mph N/A   Mostly Cloudy
5:55 PM 86.2 °F 51.8 °F 31% 29.99 in 10.0 mi South 16.1 mph 24.2 mph N/A   Scattered Clouds
6:15 PM 85.6 °F 52.7 °F 32% 29.99 in 10.0 mi SSE 18.4 mph 26.5 mph N/A   Scattered Clouds
6:35 PM 85.3 °F 51.8 °F 31% 29.98 in 10.0 mi South 16.1 mph 24.2 mph N/A   Scattered Clouds
6:55 PM 85.1 °F 51.8 °F 32% 29.97 in 10.0 mi SSE 15.0 mph 21.9 mph N/A   Scattered Clouds
7:15 PM 84.2 °F 51.1 °F 32% 29.97 in 10.0 mi SSE 17.3 mph 23.0 mph N/A   Clear
7:35 PM 82.9 °F 49.6 °F 31% 29.96 in 10.0 mi SSE 16.1 mph 20.7 mph N/A   Clear
7:55 PM 80.8 °F 48.4 °F 32% 29.98 in 10.0 mi SSE 11.5 mph - N/A   Clear
8:15 PM 79.7 °F 48.2 °F 33% 29.98 in 10.0 mi SSE 11.5 mph - N/A   Clear
8:35 PM 78.8 °F 48.7 °F 35% 29.98 in 10.0 mi SSE 9.2 mph - N/A   Clear
8:55 PM 77.9 °F 50.4 °F 38% 29.99 in 10.0 mi South 6.9 mph - N/A   Clear
9:15 PM 77.0 °F 51.6 °F 41% 29.99 in 10.0 mi South 6.9 mph - N/A   Clear
9:35 PM 75.4 °F 52.7 °F 45% 30.00 in 10.0 mi South 6.9 mph - N/A   Clear
9:55 PM 75.7 °F 53.6 °F 46% 30.01 in 7.0 mi South 6.9 mph - N/A   Clear
10:15 PM 75.6 °F 54.9 °F 48% 30.02 in 10.0 mi South 10.4 mph - N/A   Clear
10:35 PM 76.1 °F 55.6 °F 49% 30.03 in 10.0 mi South 10.4 mph - N/A   Clear
11:15 PM 72.1 °F 56.1 °F 57% 30.06 in 10.0 mi NW 10.4 mph 13.8 mph N/A Thunderstorm Mostly Cloudy
11:35 PM 67.5 °F 60.8 °F 79% 30.09 in 7.0 mi West 12.7 mph 21.9 mph N/A Rain , Thunderstorm Heavy Thunderstorms and Rain
11:55 PM 65.5 °F 61.2 °F 86% 30.08 in 10.0 mi West 3.5 mph - N/A Rain , Thunderstorm Light Thunderstorms and Rain